Weather History for Hatteras, NC

Change the Weather History Date:

Tuesday, August 12, 2014

  Actual Average Record
Temperature  
Mean Temperature 81 °F 79 °F  
Max Temperature 88 °F 85 °F 92 °F (1881)
Min Temperature 74 °F 73 °F 60 °F (1974)
Degree Days  
Heating Degree Days 0 0  
Month to date heating degree days 0 0  
Since 1 June heating degree days 0 3  
Since 1 July heating degree days 0 0  
Cooling Degree Days 16 14  
Month to date cooling degree days 157 168  
Year to date cooling degree days 1104 1056  
Since 1 June cooling degree days 868 913  
Growing Degree Days 30 (Base 50)    
Moisture  
Dew Point 76 °F    
Average Humidity 87    
Maximum Humidity 100    
Minimum Humidity 74    
Precipitation  
Precipitation 3.45 in 0.21 in 3.45 in (2014)
Month to date precipitation 9.16 2.48  
Year to date precipitation 40.16 32.74  
Snow  
Snow 0.00 in - - ()
Month to date snowfall 0.0  
Since 1 July snowfall 0.0  
Snow Depth 0.00 in    
Sea Level Pressure  
Sea Level Pressure 29.90 in    
Wind  
Wind Speed 10 mph (SSE)    
Max Wind Speed 25 mph    
Max Gust Speed 32 mph    
Visibility 4 miles    
Events Rain    
T = Trace of Precipitation, MM = Missing Value Source: NWS Daily Summary

Daily Weather History Graph

Daily Weather History Graph

Search for Another Location

Airport:

Trip Planner

Search our weather history database for the weather conditions in past years. The results will help you decide how hot, cold, wet, or windy it might be!

Date:

Astronomy

Aug. 12, 2014 Rise Set
Actual Time 6:19 AM EDT 7:54 PM EDT
Civil Twilight 5:52 AM EDT 8:21 PM EDT
Nautical Twilight 5:20 AM EDT 8:54 PM EDT
Astronomical Twilight 4:45 AM EDT 9:28 PM EDT
Moon 9:08 PM EDT (8/12) 8:27 AM EDT (8/12)
Length of Visible Light 14h 28m
Length of Day
13h 34m
Waning Gibbous, 95% of the Moon is Illuminated
Aug 12
Waning Gibbous
Aug 17
Last Quarter
Aug 25
New
Sep 2
First Quarter
Sep 8
Full

Hourly Weather History & Observations

Time (EDT) Temp. Heat Index Dew Point Humidity Pressure Visibility Wind Dir Wind Speed Gust Speed Precip Events Conditions
12:51 AM 80.1 °F 83.8 °F 72.0 °F 76% 29.98 in 10.0 mi SE 11.5 mph - N/A   Clear
1:51 AM 80.1 °F 84.5 °F 73.9 °F 81% 29.96 in 10.0 mi SE 13.8 mph - N/A   Mostly Cloudy
2:43 AM 75.9 °F - 75.0 °F 97% 29.95 in 2.0 mi SSE 11.5 mph 23.0 mph 0.09 in Rain Rain
2:51 AM 75.9 °F - 75.0 °F 97% 29.94 in 4.0 mi SSE 9.2 mph - 0.11 in Rain Light Rain
3:04 AM 75.9 °F - 73.9 °F 94% 29.95 in 4.0 mi SSE 16.1 mph 26.5 mph 0.02 in Rain Rain
3:20 AM 75.0 °F - 73.9 °F 96% 29.94 in 4.0 mi SE 18.4 mph 24.2 mph 0.04 in Rain Light Rain
3:47 AM 73.4 °F - 73.4 °F 100% 29.93 in 2.5 mi ESE 15.0 mph - N/A Rain Rain
3:51 AM 73.9 °F - 73.9 °F 100% 29.93 in 3.0 mi East 10.4 mph 20.7 mph 0.14 in Rain Rain
4:13 AM 75.9 °F - 75.9 °F 100% 29.92 in 1.8 mi East 10.4 mph - 0.05 in Rain Heavy Rain
4:21 AM 75.9 °F - 75.0 °F 97% 29.91 in 1.8 mi East 10.4 mph - 0.28 in Rain Heavy Rain
4:23 AM 75.9 °F - 75.0 °F 97% 29.91 in 2.0 mi East 12.7 mph - 0.30 in Rain Heavy Rain
4:36 AM 75.9 °F - 75.9 °F 100% 29.90 in 3.0 mi East 12.7 mph - 0.41 in Rain Light Rain
4:41 AM 77.0 °F - 75.9 °F 96% 29.91 in 1.8 mi SE 23.0 mph 32.2 mph 0.43 in Rain Heavy Rain
4:51 AM 75.9 °F - 75.9 °F 100% 29.91 in 1.0 mi SE 16.1 mph 29.9 mph 0.71 in Rain Heavy Rain
5:07 AM 75.9 °F - 75.9 °F 100% 29.91 in 1.5 mi SE 17.3 mph 28.8 mph 0.34 in Rain Rain
5:11 AM 75.9 °F - 75.9 °F 100% 29.91 in 3.0 mi SSE 17.3 mph 28.8 mph 0.35 in Rain Rain
5:19 AM 75.9 °F - 75.9 °F 100% 29.91 in 3.0 mi SSE 16.1 mph 25.3 mph 0.37 in Rain Rain
5:32 AM 75.9 °F - 75.0 °F 97% 29.90 in 2.5 mi SE 19.6 mph 25.3 mph 0.43 in Rain Rain
5:51 AM 75.9 °F - 75.9 °F 100% 29.89 in 2.5 mi ESE 17.3 mph - 0.58 in Rain Rain
6:23 AM 77.0 °F - 75.9 °F 96% 29.90 in 1.8 mi SSE 21.9 mph 28.8 mph 0.32 in Rain Heavy Rain
6:30 AM 75.0 °F - 75.0 °F 100% 29.90 in 0.8 mi SE 21.9 mph 32.2 mph 0.50 in Rain Heavy Rain
6:51 AM 73.9 °F - 73.9 °F 100% 29.90 in 1.0 mi SSE 17.3 mph 23.0 mph 1.21 in Rain Heavy Rain
6:55 AM 75.0 °F - 75.0 °F 100% 29.90 in 2.0 mi SSE 18.4 mph 25.3 mph 0.01 in Rain Light Rain
7:12 AM 75.9 °F - 75.0 °F 97% 29.90 in 2.5 mi SE 12.7 mph - 0.03 in Rain Rain
7:16 AM 75.9 °F - 75.0 °F 97% 29.90 in 1.8 mi SE 15.0 mph - 0.12 in Rain Heavy Rain
7:22 AM 75.0 °F - 75.0 °F 100% 29.91 in 2.0 mi SE 8.1 mph 19.6 mph 0.18 in Rain Heavy Rain
7:32 AM 75.9 °F - 75.0 °F 97% 29.90 in 4.0 mi SE 17.3 mph 23.0 mph 0.23 in Rain Light Rain
7:47 AM 75.2 °F - 75.2 °F 100% 29.91 in 3.0 mi SE 13.8 mph - 0.24 in Rain Light Rain
7:51 AM 75.9 °F - 75.9 °F 100% 29.91 in 4.0 mi SE 13.8 mph - 0.24 in Rain Light Rain
8:05 AM 77.0 °F - 75.2 °F 94% 29.90 in 2.5 mi SE 9.2 mph - N/A Rain Rain
8:14 AM 77.0 °F - 75.9 °F 96% 29.90 in 4.0 mi ESE 8.1 mph - 0.06 in Rain Light Rain
8:43 AM 78.1 °F - 75.9 °F 93% 29.90 in 3.0 mi South 11.5 mph - 0.07 in Rain Rain
8:51 AM 78.1 °F - 77.0 °F 96% 29.90 in 2.5 mi SSE 11.5 mph - 0.10 in Rain Light Rain
9:06 AM 78.1 °F - 77.0 °F 96% 29.90 in 4.0 mi SSE 9.2 mph - 0.04 in Rain Light Rain
9:13 AM 78.1 °F - 75.9 °F 93% 29.91 in 1.8 mi South 11.5 mph - 0.06 in Rain Heavy Rain
9:19 AM 77.0 °F - 75.9 °F 96% 29.91 in 0.8 mi South 11.5 mph - 0.19 in Rain Heavy Rain
9:27 AM 78.1 °F - 77.0 °F 96% 29.90 in 1.5 mi SSE 9.2 mph - 0.27 in Rain Light Rain
9:31 AM 78.1 °F - 77.0 °F 96% 29.90 in 3.0 mi SSE 11.5 mph - 0.27 in Rain Light Rain
9:41 AM 78.1 °F - 77.0 °F 96% 29.90 in 1.8 mi South 10.4 mph - 0.30 in Rain Rain
9:45 AM 78.8 °F - 77.0 °F 94% 29.90 in 2.0 mi SSE 10.4 mph - 0.32 in Rain Rain
9:51 AM 78.1 °F - 78.1 °F 100% 29.90 in 4.0 mi South 11.5 mph - 0.33 in Rain Light Rain
11:51 AM 82.0 °F 90.2 °F 77.0 °F 85% 29.90 in 10.0 mi South 5.8 mph - N/A   Partly Cloudy
1:51 PM 87.1 °F 99.8 °F 78.1 °F 74% 29.87 in 10.0 mi South 8.1 mph - N/A   Clear
2:51 PM 86.0 °F 96.9 °F 77.0 °F 74% 29.85 in 10.0 mi SSE 8.1 mph - N/A   Clear
3:51 PM 84.9 °F 95.3 °F 77.0 °F 77% 29.83 in 10.0 mi SSE 6.9 mph - N/A   Clear
4:51 PM 86.0 °F 98.3 °F 78.1 °F 77% 29.83 in 10.0 mi South 6.9 mph - N/A   Clear
5:51 PM 82.0 °F 90.2 °F 77.0 °F 85% 29.83 in 10.0 mi South 5.8 mph - N/A   Clear
6:51 PM 82.0 °F 90.2 °F 77.0 °F 85% 29.82 in 10.0 mi SW 6.9 mph - N/A   Clear
7:51 PM 80.1 °F 85.8 °F 77.0 °F 90% 29.82 in 10.0 mi SSW 6.9 mph - N/A   Clear
8:51 PM 80.1 °F 86.4 °F 78.1 °F 94% 29.84 in 10.0 mi SW 9.2 mph - N/A   Partly Cloudy
9:51 PM 80.1 °F 85.8 °F 77.0 °F 90% 29.85 in 10.0 mi SW 9.2 mph - N/A   Clear
10:51 PM 80.1 °F 86.4 °F 78.1 °F 94% 29.85 in 10.0 mi WSW 8.1 mph - N/A   Clear
11:51 PM 80.1 °F 86.4 °F 78.1 °F 94% 29.85 in 10.0 mi WSW 10.4 mph - N/A   Clear